| time (UTC) | temp C | wind direction | speed KPH | gust KPH | rain 1hr cm | rain 24hr cm | rain mn cm | humidity % | barometer mb |
| 20260505200459 | 12 | 206 | 20.9 | 35.4 | 0.00 | 0.00 | 0.00 | 51 | 1344.8 |
| 20260505195954 | 12 | 176 | 9.7 | 54.7 | 0.00 | 0.00 | 0.00 | 50 | 1344.8 |
| 20260505195452 | 12 | 252 | 8.0 | 45.1 | 0.00 | 0.00 | 0.00 | 48 | 1344.8 |
| 20260505194949 | 12 | 196 | 20.9 | 41.8 | 0.00 | 0.00 | 0.00 | 46 | 1344.9 |
| 20260505194446 | 12 | 246 | 24.1 | 35.4 | 0.00 | 0.00 | 0.00 | 45 | 1344.9 |
| 20260505193946 | 12 | 300 | 9.7 | 43.5 | 0.00 | 0.00 | 0.00 | 47 | 1344.8 |
| 20260505193444 | 13 | 217 | 14.5 | 37.0 | 0.00 | 0.00 | 0.00 | 44 | 1344.4 |
| 20260505192941 | 13 | 279 | 16.1 | 41.8 | 0.00 | 0.00 | 0.00 | 42 | 1344.8 |
| 20260505192440 | 13 | 337 | 9.7 | 37.0 | 0.00 | 0.00 | 0.00 | 41 | 1344.5 |
| 20260505191937 | 12 | 354 | 8.0 | 46.7 | 0.00 | 0.00 | 0.00 | 43 | 1344.4 |
| 20260505191436 | 13 | 207 | 12.9 | 41.8 | 0.00 | 0.00 | 0.00 | 41 | 1344.8 |
| 20260505190932 | 12 | 191 | 4.8 | 30.6 | 0.00 | 0.00 | 0.00 | 43 | 1344.8 |
| 20260505190427 | 12 | 259 | 3.2 | 17.7 | 0.00 | 0.00 | 0.00 | 42 | 1344.7 |
| 20260505185923 | 13 | 268 | 14.5 | 41.8 | 0.00 | 0.00 | 0.00 | 41 | 1344.9 |
| 20260505185420 | 13 | 216 | 32.2 | 33.8 | 0.00 | 0.00 | 0.00 | 42 | 1344.8 |
| 20260505184916 | 12 | 208 | 17.7 | 38.6 | 0.00 | 0.00 | 0.00 | 43 | 1344.8 |
| 20260505184413 | 12 | 220 | 16.1 | 45.1 | 0.00 | 0.00 | 0.00 | 44 | 1344.8 |
| 20260505183910 | 12 | 318 | 14.5 | 30.6 | 0.00 | 0.00 | 0.00 | 43 | 1344.9 |
| 20260505183407 | 13 | 266 | 12.9 | 35.4 | 0.00 | 0.00 | 0.00 | 40 | 1345.0 |
| 20260505182904 | 12 | 198 | 6.4 | 38.6 | 0.00 | 0.00 | 0.00 | 42 | 1345.0 |
| 20260505182400 | 12 | 233 | 12.9 | 30.6 | 0.00 | 0.00 | 0.00 | 40 | 1344.8 |
| 20260505181857 | 12 | 230 | 11.3 | 30.6 | 0.00 | 0.00 | 0.00 | 40 | 1344.8 |
| 20260505181354 | 11 | 275 | 11.3 | 27.4 | 0.00 | 0.00 | 0.00 | 41 | 1344.8 |
| 20260505180851 | 12 | 306 | 9.7 | 12.9 | 0.00 | 0.00 | 0.00 | 40 | 1345.3 |
| 20260505180347 | 12 | 274 | 11.3 | 33.8 | 0.00 | 0.00 | 0.00 | 39 | 1345.0 |
| 20260505175844 | 12 | 254 | 9.7 | 25.7 | 0.00 | 0.00 | 0.00 | 40 | 1345.5 |
| 20260505175341 | 11 | 221 | 17.7 | 45.1 | 0.00 | 0.00 | 0.00 | 41 | 1345.5 |
| 20260505174837 | 12 | 233 | 17.7 | 45.1 | 0.00 | 0.00 | 0.00 | 40 | 1345.4 |
| 20260505174335 | 13 | 273 | 20.9 | 24.1 | 0.00 | 0.00 | 0.00 | 38 | 1345.2 |
| 20260505173830 | 12 | 235 | 9.7 | 22.5 | 0.00 | 0.00 | 0.00 | 39 | 1345.3 |
| 20260505173327 | 12 | 269 | 32.2 | 32.2 | 0.00 | 0.00 | 0.00 | 39 | 1345.4 |
| 20260505172824 | 11 | 315 | 6.4 | 16.1 | 0.00 | 0.00 | 0.00 | 40 | 1345.5 |
| 20260505172322 | 11 | 337 | 9.7 | 17.7 | 0.00 | 0.00 | 0.00 | 41 | 1345.7 |
| 20260505171821 | 11 | 270 | 9.7 | 29.0 | 0.00 | 0.00 | 0.00 | 41 | 1345.4 |
| 20260505171319 | 11 | 225 | 17.7 | 20.9 | 0.00 | 0.00 | 0.00 | 41 | 1345.4 |
| 20260505170815 | 11 | 249 | 11.3 | 29.0 | 0.00 | 0.00 | 0.00 | 41 | 1345.4 |
| 20260505170312 | 11 | 293 | 29.0 | 29.0 | 0.00 | 0.00 | 0.00 | 42 | 1345.8 |
| 20260505165807 | 11 | 306 | 11.3 | 27.4 | 0.00 | 0.00 | 0.00 | 41 | 1346.0 |
| 20260505165306 | 10 | 265 | 11.3 | 35.4 | 0.00 | 0.00 | 0.00 | 43 | 1346.0 |
| 20260505164759 | 10 | 281 | 9.7 | 20.9 | 0.00 | 0.00 | 0.00 | 42 | 1345.9 |
| 20260505164256 | 10 | 267 | 12.9 | 33.8 | 0.00 | 0.00 | 0.00 | 43 | 1345.9 |
| 20260505163754 | 10 | 225 | 4.8 | 25.7 | 0.00 | 0.00 | 0.00 | 44 | 1345.8 |
| 20260505163253 | 10 | 233 | 6.4 | 29.0 | 0.00 | 0.00 | 0.00 | 45 | 1345.8 |
| 20260505162750 | 10 | 176 | 8.0 | 27.4 | 0.00 | 0.00 | 0.00 | 45 | 1346.0 |
| 20260505162247 | 10 | 272 | 14.5 | 32.2 | 0.00 | 0.00 | 0.00 | 45 | 1346.2 |
| 20260505161744 | 10 | 232 | 24.1 | 38.6 | 0.00 | 0.00 | 0.00 | 45 | 1346.0 |
| 20260505161241 | 10 | 243 | 14.5 | 33.8 | 0.00 | 0.00 | 0.00 | 45 | 1346.2 |
| 20260505160738 | 10 | 265 | 11.3 | 48.3 | 0.00 | 0.00 | 0.00 | 43 | 1345.9 |
| 20260505160236 | 10 | 348 | 14.5 | 35.4 | 0.00 | 0.00 | 0.00 | 43 | 1346.0 |
| 20260505153215 | 9 | 250 | 14.5 | 35.4 | 0.00 | 0.00 | 0.00 | 47 | 1346.2 |
| 20260505152712 | 9 | 209 | 8.0 | 24.1 | 0.00 | 0.00 | 0.00 | 47 | 1346.2 |
| 20260505152208 | 8 | 285 | 12.9 | 35.4 | 0.00 | 0.00 | 0.00 | 48 | 1346.3 |
| 20260505151703 | 9 | 273 | 12.9 | 27.4 | 0.00 | 0.00 | 0.00 | 48 | 1346.2 |
| 20260505151201 | 9 | 266 | 9.7 | 33.8 | 0.00 | 0.00 | 0.00 | 48 | 1346.4 |
| 20260505150657 | 10 | 213 | 8.0 | 30.6 | 0.00 | 0.00 | 0.00 | 47 | 1346.3 |
| 20260505150154 | 10 | 328 | 14.5 | 30.6 | 0.00 | 0.00 | 0.00 | 46 | 1346.2 |
| 20260505140622 | 8 | 218 | 8.0 | 37.0 | 0.00 | 0.00 | 0.00 | 47 | 1346.5 |
| 20260505140119 | 9 | 277 | 8.0 | 37.0 | 0.00 | 0.00 | 0.00 | 46 | 1346.7 |
| 20260505125036 | 6 | 257 | 3.2 | 14.5 | 0.00 | 0.00 | 0.00 | 43 | 1346.3 |
| 20260505124533 | 6 | 246 | 6.4 | 12.9 | 0.00 | 0.00 | 0.00 | 43 | 1346.2 |
| 20260505124029 | 6 | 261 | 4.8 | 12.9 | 0.00 | 0.00 | 0.00 | 43 | 1346.0 |
| 20260505123525 | 6 | 231 | 9.7 | 11.3 | 0.00 | 0.00 | 0.00 | 43 | 1346.2 |
| 20260505123021 | 6 | 328 | 9.7 | 11.3 | 0.00 | 0.00 | 0.00 | 43 | 1346.3 |
| 20260505122519 | 6 | 328 | 6.4 | 14.5 | 0.00 | 0.00 | 0.00 | 43 | 1346.0 |
| 20260505122016 | 6 | 329 | 0.0 | 9.7 | 0.00 | 0.00 | 0.00 | 42 | 1346.0 |
| 20260505121512 | 6 | 14 | 3.2 | 3.2 | 0.00 | 0.00 | 0.00 | 42 | 1345.9 |
| 20260505121009 | 6 | 292 | 3.2 | 6.4 | 0.00 | 0.00 | 0.00 | 42 | 1346.0 |
| 20260505120506 | 6 | 139 | 3.2 | 6.4 | 0.00 | 0.00 | 0.00 | 42 | 1345.8 |
| 20260505120006 | 7 | 254 | 0.0 | 14.5 | 0.00 | 0.00 | 0.00 | 41 | 1345.7 |
| 20260505115501 | 7 | 349 | 1.6 | 8.0 | 0.00 | 0.00 | 0.00 | 41 | 1345.3 |
| 20260505114959 | 7 | 56 | 8.0 | 19.3 | 0.00 | 0.00 | 0.00 | 40 | 1345.5 |
| 20260505114455 | 7 | 284 | 8.0 | 12.9 | 0.00 | 0.00 | 0.00 | 40 | 1345.8 |
| 20260505113952 | 7 | 248 | 19.3 | 20.9 | 0.00 | 0.00 | 0.00 | 40 | 1345.7 |
| 20260505113449 | 7 | 331 | 6.4 | 20.9 | 0.00 | 0.00 | 0.00 | 41 | 1345.9 |
| 20260505112944 | 7 | 43 | 6.4 | 8.0 | 0.00 | 0.00 | 0.00 | 42 | 1345.7 |
| 20260505112441 | 7 | 187 | 0.0 | 16.1 | 0.00 | 0.00 | 0.00 | 41 | 1345.4 |
| 20260505111938 | 7 | 189 | 3.2 | 20.9 | 0.00 | 0.00 | 0.00 | 42 | 1345.3 |
| 20260505111432 | 7 | 295 | 0.0 | 22.5 | 0.00 | 0.00 | 0.00 | 41 | 1345.3 |
| 20260505110929 | 7 | 255 | 11.3 | 20.9 | 0.00 | 0.00 | 0.00 | 41 | 1345.5 |
| 20260505110426 | 7 | 259 | 12.9 | 17.7 | 0.00 | 0.00 | 0.00 | 42 | 1345.3 |
| 20260505101856 | 8 | 218 | 4.8 | 17.7 | 0.00 | 0.00 | 0.00 | 43 | 1345.5 |
| 20260505101351 | 8 | 256 | 4.8 | 17.7 | 0.00 | 0.00 | 0.00 | 42 | 1345.3 |
| 20260505100847 | 8 | 201 | 6.4 | 27.4 | 0.00 | 0.00 | 0.00 | 42 | 1345.5 |
| 20260505100344 | 8 | 233 | 9.7 | 27.4 | 0.00 | 0.00 | 0.00 | 42 | 1345.3 |
| 20260505095840 | 8 | 221 | 9.7 | 19.3 | 0.00 | 0.00 | 0.00 | 42 | 1345.5 |
| 20260505095338 | 8 | 272 | 8.0 | 25.7 | 0.00 | 0.00 | 0.00 | 41 | 1345.4 |
| 20260505094833 | 8 | 311 | 8.0 | 16.1 | 0.00 | 0.00 | 0.00 | 41 | 1345.5 |
| 20260505094331 | 8 | 266 | 4.8 | 24.1 | 0.00 | 0.00 | 0.00 | 40 | 1345.2 |
| 20260505093826 | 8 | 221 | 33.8 | 33.8 | 0.00 | 0.00 | 0.00 | 40 | 1345.5 |
| 20260505093324 | 8 | 223 | 17.7 | 22.5 | 0.00 | 0.00 | 0.00 | 39 | 1345.5 |
| 20260505092820 | 8 | 203 | 11.3 | 22.5 | 0.00 | 0.00 | 0.00 | 39 | 1345.8 |
| 20260505092319 | 9 | 208 | 6.4 | 22.5 | 0.00 | 0.00 | 0.00 | 38 | 1345.5 |
| 20260505091816 | 9 | 285 | 12.9 | 24.1 | 0.00 | 0.00 | 0.00 | 38 | 1345.0 |
| 20260505091314 | 9 | 221 | 3.2 | 24.1 | 0.00 | 0.00 | 0.00 | 37 | 1345.5 |
| 20260505090812 | 9 | 237 | 4.8 | 14.5 | 0.00 | 0.00 | 0.00 | 37 | 1345.8 |
| 20260505090310 | 10 | 265 | 8.0 | 14.5 | 0.00 | 0.00 | 0.00 | 36 | 1345.8 |
| 20260505085806 | 10 | 260 | 11.3 | 12.9 | 0.00 | 0.00 | 0.00 | 35 | 1345.9 |
| 20260505085305 | 10 | 286 | 4.8 | 12.9 | 0.00 | 0.00 | 0.00 | 35 | 1346.0 |
| 20260505084802 | 10 | 228 | 8.0 | 16.1 | 0.00 | 0.00 | 0.00 | 35 | 1345.8 |
| 20260505084301 | 10 | 282 | 6.4 | 11.3 | 0.00 | 0.00 | 0.00 | 35 | 1345.9 |
| 20260505083757 | 10 | 347 | 4.8 | 25.7 | 0.00 | 0.00 | 0.00 | 34 | 1345.8 |
| 20260505083254 | 10 | 255 | 1.6 | 20.9 | 0.00 | 0.00 | 0.00 | 34 | 1345.9 |
| 20260505082750 | 10 | 304 | 27.4 | 30.6 | 0.00 | 0.00 | 0.00 | 34 | 1346.2 |
| 20260505082247 | 10 | 293 | 17.7 | 30.6 | 0.00 | 0.00 | 0.00 | 34 | 1346.2 |
| 20260505081743 | 10 | 288 | 22.5 | 29.0 | 0.00 | 0.00 | 0.00 | 34 | 1346.5 |
| 20260505081241 | 10 | 279 | 4.8 | 29.0 | 0.00 | 0.00 | 0.00 | 34 | 1346.3 |
| 20260505080737 | 10 | 283 | 9.7 | 29.0 | 0.00 | 0.00 | 0.00 | 33 | 1346.4 |
| 20260505080233 | 10 | 306 | 8.0 | 14.5 | 0.00 | 0.00 | 0.00 | 33 | 1346.5 |
| 20260505075729 | 10 | 273 | 6.4 | 32.2 | 0.00 | 0.00 | 0.00 | 33 | 1346.7 |
| 20260505075226 | 10 | 289 | 14.5 | 24.1 | 0.00 | 0.00 | 0.00 | 32 | 1346.5 |
| 20260505074723 | 10 | 272 | 22.5 | 22.5 | 0.00 | 0.00 | 0.00 | 32 | 1346.7 |
| 20260505074220 | 10 | 251 | 6.4 | 20.9 | 0.00 | 0.00 | 0.00 | 32 | 1346.2 |
| 20260505073718 | 11 | 0 | 6.4 | 25.7 | 0.00 | 0.00 | 0.00 | 32 | 1346.3 |
| 20260505073216 | 11 | 307 | 4.8 | 24.1 | 0.00 | 0.00 | 0.00 | 32 | 1346.2 |
| 20260505072711 | 11 | 280 | 9.7 | 20.9 | 0.00 | 0.00 | 0.00 | 32 | 1346.3 |
| 20260505072208 | 11 | 221 | 0.0 | 11.3 | 0.00 | 0.00 | 0.00 | 32 | 1346.4 |
| 20260505071703 | 11 | 27 | 11.3 | 22.5 | 0.00 | 0.00 | 0.00 | 32 | 1346.2 |
| 20260505071201 | 11 | 281 | 6.4 | 25.7 | 0.00 | 0.00 | 0.00 | 31 | 1346.2 |
| 20260505070659 | 11 | 318 | 8.0 | 25.7 | 0.00 | 0.00 | 0.00 | 32 | 1346.0 |
| 20260505070155 | 11 | 276 | 19.3 | 24.1 | 0.00 | 0.00 | 0.00 | 32 | 1346.0 |
| 20260505065651 | 11 | 215 | 9.7 | 30.6 | 0.00 | 0.00 | 0.00 | 32 | 1345.9 |
| 20260505065148 | 11 | 270 | 19.3 | 35.4 | 0.00 | 0.00 | 0.00 | 31 | 1345.8 |
| 20260505064644 | 11 | 209 | 19.3 | 22.5 | 0.00 | 0.00 | 0.00 | 32 | 1346.0 |
| 20260505064142 | 11 | 263 | 6.4 | 22.5 | 0.00 | 0.00 | 0.00 | 32 | 1346.0 |
| 20260505063640 | 11 | 315 | 8.0 | 25.7 | 0.00 | 0.00 | 0.00 | 32 | 1346.3 |
| 20260505063136 | 11 | 242 | 24.1 | 24.1 | 0.00 | 0.00 | 0.00 | 32 | 1346.0 |
| 20260505062633 | 11 | 213 | 17.7 | 33.8 | 0.00 | 0.00 | 0.00 | 31 | 1346.0 |
| 20260505062130 | 11 | 207 | 0.0 | 19.3 | 0.00 | 0.00 | 0.00 | 31 | 1345.9 |
| 20260505061626 | 11 | 225 | 12.9 | 29.0 | 0.00 | 0.00 | 0.00 | 31 | 1346.2 |
| 20260505061125 | 12 | 275 | 6.4 | 30.6 | 0.00 | 0.00 | 0.00 | 31 | 1345.9 |
| 20260505060622 | 12 | 260 | 24.1 | 41.8 | 0.00 | 0.00 | 0.00 | 31 | 1346.0 |
| 20260505060119 | 12 | 250 | 20.9 | 38.6 | 0.00 | 0.00 | 0.00 | 31 | 1346.2 |
| 20260505055614 | 12 | 237 | 14.5 | 35.4 | 0.00 | 0.00 | 0.00 | 31 | 1346.2 |
| 20260505055111 | 12 | 275 | 4.8 | 24.1 | 0.00 | 0.00 | 0.00 | 31 | 1346.4 |
| 20260505054608 | 12 | 229 | 19.3 | 27.4 | 0.00 | 0.00 | 0.00 | 31 | 1346.5 |
| 20260505054106 | 12 | 242 | 12.9 | 29.0 | 0.00 | 0.00 | 0.00 | 31 | 1346.4 |
| 20260505053603 | 12 | 246 | 9.7 | 22.5 | 0.00 | 0.00 | 0.00 | 32 | 1346.5 |
| 20260505053059 | 12 | 225 | 8.0 | 27.4 | 0.00 | 0.00 | 0.00 | 32 | 1346.0 |
| 20260505052556 | 11 | 223 | 9.7 | 17.7 | 0.00 | 0.00 | 0.00 | 33 | 1346.3 |
| 20260505052054 | 11 | 221 | 12.9 | 19.3 | 0.00 | 0.00 | 0.00 | 33 | 1346.4 |
| 20260505051551 | 11 | 159 | 3.2 | 9.7 | 0.00 | 0.00 | 0.00 | 33 | 1346.3 |
| 20260505051049 | 11 | 194 | 6.4 | 8.0 | 0.00 | 0.00 | 0.00 | 34 | 1346.4 |
| 20260505050547 | 11 | 204 | 3.2 | 8.0 | 0.00 | 0.00 | 0.00 | 33 | 1346.4 |
| 20260505041514 | 12 | 319 | 3.2 | 12.9 | 0.00 | 0.00 | 0.00 | 30 | 1346.8 |
| 20260505041012 | 12 | 216 | 4.8 | 14.5 | 0.00 | 0.00 | 0.00 | 30 | 1346.4 |
| 20260505040509 | 12 | 232 | 6.4 | 14.5 | 0.00 | 0.00 | 0.00 | 29 | 1346.4 |
| 20260505040006 | 12 | 228 | 11.3 | 24.1 | 0.00 | 0.00 | 0.00 | 29 | 1346.3 |
| 20260505035502 | 12 | 239 | 11.3 | 24.1 | 0.00 | 0.00 | 0.00 | 29 | 1346.3 |
| 20260505034959 | 12 | 319 | 9.7 | 20.9 | 0.00 | 0.00 | 0.00 | 28 | 1346.5 |
| 20260505034455 | 12 | 247 | 3.2 | 14.5 | 0.00 | 0.00 | 0.00 | 28 | 1346.8 |
| 20260505033953 | 12 | 241 | 16.1 | 19.3 | 0.00 | 0.00 | 0.00 | 28 | 1346.5 |
| 20260505033449 | 12 | 276 | 4.8 | 30.6 | 0.00 | 0.00 | 0.00 | 28 | 1346.3 |
| 20260505032948 | 12 | 270 | 8.0 | 14.5 | 0.00 | 0.00 | 0.00 | 27 | 1346.3 |
| 20260505032444 | 12 | 225 | 8.0 | 17.7 | 0.00 | 0.00 | 0.00 | 27 | 1346.3 |
| 20260505031941 | 13 | 277 | 9.7 | 12.9 | 0.00 | 0.00 | 0.00 | 26 | 1346.0 |
| 20260505031438 | 13 | 216 | 20.9 | 20.9 | 0.00 | 0.00 | 0.00 | 26 | 1346.2 |
| 20260505030935 | 13 | 242 | 6.4 | 27.4 | 0.00 | 0.00 | 0.00 | 25 | 1346.0 |
| 20260505030431 | 13 | 247 | 9.7 | 19.3 | 0.00 | 0.00 | 0.00 | 25 | 1346.3 |
| 20260505025926 | 13 | 206 | 3.2 | 9.7 | 0.00 | 0.00 | 0.00 | 25 | 1346.0 |
| 20260505025424 | 13 | 270 | 4.8 | 14.5 | 0.00 | 0.00 | 0.00 | 24 | 1345.9 |
| 20260505024922 | 13 | 226 | 11.3 | 22.5 | 0.00 | 0.00 | 0.00 | 24 | 1345.7 |
| 20260505024419 | 13 | 303 | 17.7 | 20.9 | 0.00 | 0.00 | 0.00 | 24 | 1345.8 |
| 20260505023916 | 13 | 237 | 4.8 | 24.1 | 0.00 | 0.00 | 0.00 | 24 | 1345.4 |
| 20260505023413 | 13 | 234 | 9.7 | 25.7 | 0.00 | 0.00 | 0.00 | 23 | 1345.3 |
| 20260505022911 | 14 | 305 | 4.8 | 25.7 | 0.00 | 0.00 | 0.00 | 23 | 1345.5 |
| 20260505022408 | 14 | 302 | 8.0 | 30.6 | 0.00 | 0.00 | 0.00 | 23 | 1345.7 |
| 20260505021905 | 14 | 296 | 24.1 | 24.1 | 0.00 | 0.00 | 0.00 | 22 | 1345.7 |
| 20260505021401 | 14 | 281 | 27.4 | 27.4 | 0.00 | 0.00 | 0.00 | 22 | 1345.4 |
| 20260505020857 | 15 | 236 | 22.5 | 27.4 | 0.00 | 0.00 | 0.00 | 21 | 1345.5 |
| 20260505020353 | 15 | 228 | 8.0 | 24.1 | 0.00 | 0.00 | 0.00 | 21 | 1345.5 |
| 20260505015850 | 15 | 241 | 8.0 | 30.6 | 0.00 | 0.00 | 0.00 | 21 | 1345.5 |
| 20260505015347 | 15 | 335 | 8.0 | 29.0 | 0.00 | 0.00 | 0.00 | 21 | 1345.3 |
| 20260505014844 | 15 | 313 | 9.7 | 22.5 | 0.00 | 0.00 | 0.00 | 20 | 1345.5 |
| 20260505014341 | 15 | 254 | 16.1 | 25.7 | 0.00 | 0.00 | 0.00 | 20 | 1345.2 |
| 20260505013838 | 15 | 292 | 6.4 | 27.4 | 0.00 | 0.00 | 0.00 | 20 | 1345.2 |
| 20260505013335 | 15 | 276 | 6.4 | 38.6 | 0.00 | 0.00 | 0.00 | 20 | 1345.0 |
| 20260505012833 | 15 | 246 | 25.7 | 25.7 | 0.00 | 0.00 | 0.00 | 20 | 1344.8 |
| 20260505012331 | 15 | 325 | 17.7 | 35.4 | 0.00 | 0.00 | 0.00 | 20 | 1345.0 |
| 20260505011826 | 15 | 274 | 16.1 | 35.4 | 0.00 | 0.00 | 0.00 | 20 | 1345.0 |
| 20260505011324 | 15 | 216 | 9.7 | 37.0 | 0.00 | 0.00 | 0.00 | 20 | 1345.0 |
| 20260505010819 | 15 | 270 | 9.7 | 22.5 | 0.00 | 0.00 | 0.00 | 20 | 1344.9 |
| 20260505010315 | 15 | 279 | 35.4 | 37.0 | 0.00 | 0.00 | 0.00 | 19 | 1345.2 |
| 20260505005812 | 16 | 225 | 4.8 | 32.2 | 0.00 | 0.00 | 0.00 | 19 | 1345.2 |
| 20260505005309 | 16 | 250 | 37.0 | 46.7 | 0.00 | 0.00 | 0.00 | 19 | 1345.3 |
| 20260505004807 | 16 | 230 | 35.4 | 51.5 | 0.00 | 0.00 | 0.00 | 19 | 1345.4 |
| 20260505004302 | 16 | 253 | 12.9 | 41.8 | 0.00 | 0.00 | 0.00 | 19 | 1345.2 |
| 20260505003800 | 16 | 258 | 20.9 | 32.2 | 0.00 | 0.00 | 0.00 | 19 | 1345.3 |
| 20260505003257 | 16 | 305 | 20.9 | 27.4 | 0.00 | 0.00 | 0.00 | 20 | 1345.0 |
| 20260505002753 | 16 | 255 | 9.7 | 43.5 | 0.00 | 0.00 | 0.00 | 20 | 1345.0 |
| 20260505002251 | 16 | 282 | 4.8 | 41.8 | 0.00 | 0.00 | 0.00 | 21 | 1345.3 |
| 20260505001749 | 16 | 272 | 12.9 | 37.0 | 0.00 | 0.00 | 0.00 | 21 | 1345.2 |
| 20260505001246 | 16 | 241 | 16.1 | 33.8 | 0.00 | 0.00 | 0.00 | 21 | 1345.4 |
| 20260505000742 | 16 | 337 | 6.4 | 33.8 | 0.00 | 0.00 | 0.00 | 21 | 1345.8 |
| 20260505000241 | 16 | 280 | 14.5 | 27.4 | 0.00 | 0.00 | 0.00 | 21 | 1345.3 |
| 20260504235737 | 16 | 232 | 16.1 | 48.3 | 0.00 | 0.00 | 0.00 | 21 | 1345.4 |
| 20260504235233 | 16 | 278 | 17.7 | 41.8 | 0.00 | 0.00 | 0.00 | 21 | 1345.5 |
| 20260504234731 | 17 | 248 | 19.3 | 35.4 | 0.00 | 0.00 | 0.00 | 20 | 1345.4 |
| 20260504234228 | 17 | 272 | 12.9 | 32.2 | 0.00 | 0.00 | 0.00 | 20 | 1345.5 |
| 20260504233724 | 17 | 247 | 11.3 | 33.8 | 0.00 | 0.00 | 0.00 | 20 | 1345.4 |
| 20260504233219 | 17 | 271 | 14.5 | 41.8 | 0.00 | 0.00 | 0.00 | 21 | 1345.5 |
| 20260504232717 | 17 | 353 | 20.9 | 29.0 | 0.00 | 0.00 | 0.00 | 20 | 1345.4 |
| 20260504232214 | 17 | 204 | 12.9 | 37.0 | 0.00 | 0.00 | 0.00 | 20 | 1345.8 |
| 20260504231711 | 17 | 270 | 4.8 | 25.7 | 0.00 | 0.00 | 0.00 | 20 | 1345.4 |
| 20260504231207 | 17 | 262 | 14.5 | 25.7 | 0.00 | 0.00 | 0.00 | 20 | 1345.4 |
| 20260504230703 | 17 | 331 | 4.8 | 38.6 | 0.00 | 0.00 | 0.00 | 20 | 1345.9 |
| 20260504230202 | 17 | 262 | 17.7 | 35.4 | 0.00 | 0.00 | 0.00 | 20 | 1346.2 |
| 20260504225700 | 18 | 173 | 4.8 | 29.0 | 0.00 | 0.00 | 0.00 | 19 | 1345.5 |
| 20260504225155 | 17 | 207 | 14.5 | 41.8 | 0.00 | 0.00 | 0.00 | 20 | 1345.8 |
| 20260504224653 | 17 | 201 | 25.7 | 37.0 | 0.00 | 0.00 | 0.00 | 21 | 1346.0 |
| 20260504224150 | 17 | 230 | 11.3 | 37.0 | 0.00 | 0.00 | 0.00 | 21 | 1345.4 |
| 20260504223647 | 16 | 288 | 12.9 | 38.6 | 0.00 | 0.00 | 0.00 | 21 | 1345.9 |
| 20260504223142 | 16 | 208 | 11.3 | 33.8 | 0.00 | 0.00 | 0.00 | 21 | 1346.2 |
| 20260504222640 | 16 | 229 | 9.7 | 46.7 | 0.00 | 0.00 | 0.00 | 21 | 1346.0 |
| 20260504222136 | 16 | 239 | 17.7 | 38.6 | 0.00 | 0.00 | 0.00 | 20 | 1346.2 |
| 20260504221634 | 17 | 216 | 16.1 | 27.4 | 0.00 | 0.00 | 0.00 | 20 | 1346.3 |
| 20260504221131 | 16 | 237 | 16.1 | 40.2 | 0.00 | 0.00 | 0.00 | 20 | 1346.3 |
| 20260504220627 | 16 | 240 | 19.3 | 48.3 | 0.00 | 0.00 | 0.00 | 20 | 1346.7 |
| 20260504220125 | 17 | 216 | 29.0 | 43.5 | 0.00 | 0.00 | 0.00 | 19 | 1346.3 |
| 20260504215621 | 17 | 301 | 11.3 | 35.4 | 0.00 | 0.00 | 0.00 | 19 | 1346.3 |
| 20260504215119 | 17 | 221 | 30.6 | 48.3 | 0.00 | 0.00 | 0.00 | 19 | 1346.4 |
| 20260504214614 | 17 | 237 | 11.3 | 33.8 | 0.00 | 0.00 | 0.00 | 19 | 1346.2 |
| 20260504214111 | 17 | 213 | 17.7 | 43.5 | 0.00 | 0.00 | 0.00 | 18 | 1346.4 |
| 20260504213607 | 17 | 284 | 9.7 | 24.1 | 0.00 | 0.00 | 0.00 | 18 | 1346.5 |
| 20260504213104 | 16 | 225 | 4.8 | 45.1 | 0.00 | 0.00 | 0.00 | 19 | 1346.5 |
| 20260504212600 | 17 | 238 | 32.2 | 66.0 | 0.00 | 0.00 | 0.00 | 18 | 1346.8 |
| 20260504212058 | 18 | 307 | 25.7 | 64.4 | 0.00 | 0.00 | 0.00 | 17 | 1346.7 |
| 20260504211554 | 17 | 317 | 20.9 | 48.3 | 0.00 | 0.00 | 0.00 | 17 | 1347.0 |
| 20260504211051 | 17 | 265 | 32.2 | 41.8 | 0.00 | 0.00 | 0.00 | 16 | 1347.3 |
| 20260504210549 | 18 | 198 | 24.1 | 57.9 | 0.00 | 0.00 | 0.00 | 15 | 1347.0 |
| 20260504210045 | 18 | 271 | 24.1 | 62.8 | 0.00 | 0.00 | 0.00 | 15 | 1346.9 |
| 20260504205543 | 17 | 296 | 22.5 | 43.5 | 0.00 | 0.00 | 0.00 | 16 | 1347.3 |
| 20260504205041 | 18 | 222 | 29.0 | 48.3 | 0.00 | 0.00 | 0.00 | 15 | 1347.3 |
| 20260504204538 | 17 | 276 | 24.1 | 53.1 | 0.00 | 0.00 | 0.00 | 16 | 1347.3 |
| 20260504204037 | 17 | 283 | 24.1 | 41.8 | 0.00 | 0.00 | 0.00 | 16 | 1347.2 |
| 20260504203535 | 18 | 204 | 29.0 | 56.3 | 0.00 | 0.00 | 0.00 | 16 | 1347.3 |
| 20260504203032 | 17 | 272 | 16.1 | 54.7 | 0.00 | 0.00 | 0.00 | 16 | 1347.4 |
| 20260504202527 | 17 | 231 | 16.1 | 45.1 | 0.00 | 0.00 | 0.00 | 17 | 1347.8 |
| 20260504202025 | 17 | 283 | 20.9 | 32.2 | 0.00 | 0.00 | 0.00 | 17 | 1347.5 |
| 20260504201521 | 17 | 273 | 25.7 | 41.8 | 0.00 | 0.00 | 0.00 | 17 | 1347.8 |
| 20260504201019 | 17 | 268 | 32.2 | 46.7 | 0.00 | 0.00 | 0.00 | 17 | 1347.7 |